Temp
11 11 11 11 10 10 10 10 10 11 11 11 11 10 10 10 10 10 9 9 9 9 9 9 8 8 8 8 8 8 8 9 8 8 8 9 10 10 12 11 11 13 12
11 11 10 10 10 9 10 10 10 10 10 10 10 9 9 9 9 8 8 8 8 8 8 8 8 8 8 8 8 7 7 8 8 8 8 9 11 10 10 11 10 11 10
12 11 10 10 9 10 10 10 10 11 10 10 10 10 9 9 8 9 9 9 8 7 7 8 8 8 7 7 7 7 7 7 8 7 7 8 9 9 10 10 10 10 10
11 10 10 9 10 10 10 10 10 10 10 10 10 10 9 9 8 8 8 8 8 8 8 8 8 8 8 7 6 7 7 7 7 7 7 7 7 8 8 10 10 10 10
10 9 9 10 10 10 10 10 10 10 10 10 10 9 9 9 9 9 9 9 8 8 8 8 8 8 7 7 7 7 7 7 6 7 7 7 7 7 7 8 9 9 9
9 9 9 10 10 10 9 9 9 9 9 9 9 9 9 9 9 9 9 9 9 8 8 8 8 8 8 8 7 7 7 7 6 6 6 7 7 7 7 7 8 8 9
9 8 8 8 9 9 9 8 9 9 9 8 8 8 8 8 8 8 8 8 8 8 8 8 8 8 8 8 8 7 7 7 7 6 6 6 6 6 6 6 7 6 7
9 8 8 9 8 9 9 8 9 9 8 8 8 7 7 7 7 7 7 7 8 8 8 8 8 7 7 7 7 8 7 7 7 6 6 6 6 6 6 6 6 6 6
8 8 8 8 8 8 8 8 7 7 6 6 7 7 7 7 7 7 7 7 7 7 7 7 7 7 7 6 6 6 6 6 6 6 6 5 5 5 6 6 5 6 5
8 8 8 8 7 7 7 6 6 6 5 6 6 6 6 6 6 6 6 6 6 6 6 6 6 6 6 6 5 5 5 5 5 5 5 5 5 5 5 5 5 5 5
8 8 8 8 8 7 6 5 5 5 5 5 5 5 5 5 5 5 5 5 5 5 5 5 5 5 4 4 4 4 4 4 4 4 4 4 4 4 5 5 5 5 5
8 7 7 7 7 6 6 5 4 4 4 4 4 4 4 5 4 4 4 4 4 4 3 3 3 3 3 3 3 3 3 3 3 4 3 3 3 3 4 4 5 5 4
6 6 6 6 6 6 6 5 5 4 4 4 3 3 3 4 4 3 3 3 3 3 3 2 2 2 2 2 3 2 2 2 2 3 3 2 2 2 3 3 4 4 4
6 5 5 5 5 5 5 4 4 4 4 4 3 3 3 3 3 2 2 2 2 1 2 2 2 2 2 2 2 2 2 2 1 2 2 3 2 1 2 2 3 3 3
5 5 4 4 4 4 4 4 4 4 4 4 3 3 3 2 2 1 1 1 1 1 1 1 1 1 1 1 1 1 1 1 1 2 2 2 2 1 0 0 1 2 2
4 4 3 3 3 3 3 3 3 3 3 3 3 2 2 1 1 1 0 0 0 -0 -0 -0 -0 -0 0 1 0 -1 -1 0 0 1 1 2 2 2 0 -0 0 1 0
3 3 2 2 1 1 1 1 1 1 1 2 1 1 1 0 0 -0 -0 -0 -1 -1 -1 -0 -0 -0 0 1 0 -0 -1 -1 -0 -0 -0 0 1 1 -2 -1 -1 -0 -0
2 1 1 0 -0 -0 -0 -0 -0 -0 -0 1 1 1 -0 0 0 -0 -1 -1 -1 -1 -1 -1 -0 -0 0 0 0 -0 -1 -2 -1 -1 -1 -1 -1 -0 -2 -2 -2 -2 -1
0 -0 -0 -1 -1 -1 -1 -1 -1 -1 -1 -1 -0 -0 -1 -0 -0 -0 -1 -1 -1 -1 -1 -1 -1 -1 -0 -0 -1 -1 -1 -2 -1 -1 -1 -1 -2 -2 -2 -3 -3 -2 -2
-0 -1 -1 -1 -1 -1 -1 -1 -1 -1 -1 -1 -1 -1 -1 -1 -1 -1 -1 -2 -2 -2 -2 -1 -1 -1 -1 -1 -2 -2 -2 -2 -2 -2 -1 -1 -2 -3 -3 -3 -3 -3 -2
-1 -1 -1 -1 -1 -1 -1 -1 -1 -1 -1 -1 -1 -1 -1 -1 -1 -1 -1 -2 -2 -2 -2 -2 -2 -1 -1 -1 -1 -2 -2 -2 -2 -2 -2 -2 -2 -2 -3 -3 -3 -3 -3
-1 -1 -1 -1 -1 -1 -1 -1 -1 -1 -1 -1 -1 -1 -1 -1 -2 -2 -2 -2 -2 -2 -2 -3 -2 -1 -1 -1 -2 -2 -2 -2 -2 -3 -2 -2 -2 -3 -3 -3 -3 -3 -3
-1 -1 -1 -1 -1 -1 -1 -1 -2 -2 -2 -2 -1 -1 -2 -2 -2 -2 -3 -3 -3 -3 -3 -3 -3 -3 -3 -3 -3 -2 -2 -3 -3 -3 -3 -3 -4 -4 -4 -4 -4 -4 -3
-1 -1 -1 -1 -1 -2 -2 -2 -2 -3 -3 -3 -2 -2 -3 -3 -3 -3 -3 -3 -3 -3 -3 -3 -3 -3 -3 -3 -3 -3 -3 -3 -4 -4 -4 -4 -4 -4 -5 -4 -4 -4 -4
-1 -2 -2 -2 -2 -2 -3 -3 -3 -3 -3 -3 -3 -3 -3 -4 -4 -4 -4 -4 -4 -4 -4 -4 -4 -4 -4 -4 -4 -4 -4 -4 -4 -5 -5 -5 -5 -5 -5 -5 -5 -5 -4
-2 -2 -2 -2 -3 -3 -3 -3 -4 -4 -4 -4 -4 -4 -4 -4 -4 -4 -4 -5 -5 -4 -4 -4 -4 -5 -5 -5 -5 -5 -5 -5 -5 -6 -6 -6 -5 -5 -5 -5 -6 -5 -4
Height
1530 1530 1531 1532 1533 1533 1533 1532 1531 1531 1530 1529 1529 1528 1527 1526 1525 1524 1522 1521 1520 1519 1518 1517 1515 1514 1513 1511 1510 1508 1505 1504 1502 1501 1497 1495 1493 1492 1493 1490 1489 1490 1492
1530 1531 1532 1533 1533 1533 1533 1532 1531 1530 1529 1528 1528 1527 1526 1524 1524 1522 1521 1520 1518 1518 1516 1515 1513 1512 1512 1510 1508 1507 1506 1505 1503 1501 1499 1495 1492 1492 1492 1490 1490 1488 1495
1530 1532 1533 1533 1532 1532 1532 1531 1530 1529 1528 1527 1526 1525 1524 1523 1521 1520 1518 1517 1516 1515 1514 1513 1512 1511 1510 1509 1508 1506 1504 1502 1501 1498 1499 1495 1492 1490 1492 1490 1487 1491 1494
1530 1531 1532 1532 1532 1531 1531 1530 1529 1528 1527 1526 1525 1523 1522 1521 1519 1518 1516 1515 1514 1513 1512 1510 1509 1508 1507 1507 1506 1505 1503 1500 1498 1497 1496 1495 1493 1491 1489 1487 1487 1489 1490
1529 1530 1530 1530 1530 1530 1530 1529 1528 1527 1525 1524 1523 1522 1521 1520 1518 1517 1515 1513 1512 1510 1509 1508 1507 1506 1505 1504 1502 1501 1501 1500 1499 1497 1496 1494 1493 1493 1490 1486 1484 1485 1485
1527 1528 1528 1528 1529 1529 1529 1529 1528 1526 1525 1524 1523 1521 1521 1519 1517 1516 1515 1513 1512 1510 1508 1506 1504 1503 1502 1501 1499 1497 1496 1494 1493 1493 1491 1489 1487 1485 1487 1486 1483 1482 1480
1527 1528 1529 1529 1529 1528 1527 1526 1525 1524 1523 1522 1520 1519 1518 1517 1516 1514 1513 1511 1509 1508 1506 1504 1501 1499 1497 1496 1495 1493 1491 1490 1489 1487 1486 1485 1484 1484 1481 1479 1475 1475 1472
1528 1528 1528 1528 1527 1527 1526 1526 1524 1523 1522 1520 1519 1517 1516 1515 1513 1511 1510 1508 1506 1504 1502 1500 1498 1496 1494 1491 1490 1488 1487 1485 1484 1482 1482 1480 1478 1477 1477 1477 1475 1469 1465
1527 1528 1527 1527 1526 1525 1524 1523 1522 1521 1519 1518 1516 1514 1513 1512 1510 1508 1507 1504 1503 1501 1498 1495 1493 1491 1489 1487 1484 1483 1482 1481 1480 1478 1476 1474 1474 1473 1470 1470 1469 1467 1461
1528 1528 1527 1527 1526 1524 1523 1521 1520 1518 1517 1515 1514 1512 1511 1509 1507 1504 1501 1499 1498 1496 1493 1490 1488 1486 1483 1481 1479 1477 1475 1473 1473 1472 1472 1470 1468 1467 1468 1465 1463 1462 1460
1527 1526 1525 1525 1522 1521 1520 1519 1518 1517 1515 1513 1511 1510 1508 1506 1504 1501 1498 1495 1492 1490 1487 1485 1482 1480 1478 1475 1473 1471 1469 1467 1465 1464 1463 1464 1463 1461 1461 1462 1460 1458 1457
1524 1523 1522 1522 1521 1519 1518 1517 1516 1514 1512 1510 1508 1506 1504 1501 1499 1496 1493 1490 1487 1483 1481 1478 1476 1473 1471 1468 1467 1464 1462 1461 1458 1456 1454 1453 1454 1454 1452 1452 1453 1452 1450
1519 1519 1519 1519 1518 1517 1517 1515 1514 1512 1510 1507 1504 1502 1499 1496 1493 1490 1488 1485 1481 1477 1474 1471 1469 1467 1465 1463 1460 1457 1455 1453 1452 1450 1447 1446 1444 1443 1444 1443 1442 1442 1441
1520 1519 1518 1518 1516 1516 1515 1513 1511 1509 1506 1503 1499 1496 1493 1489 1486 1483 1480 1478 1475 1471 1468 1465 1462 1459 1458 1457 1454 1452 1448 1446 1445 1443 1441 1438 1436 1435 1435 1434 1433 1432 1432
1518 1517 1517 1516 1515 1513 1511 1509 1506 1503 1500 1495 1492 1488 1486 1483 1481 1478 1474 1470 1467 1464 1461 1457 1455 1453 1450 1449 1447 1445 1442 1440 1438 1436 1433 1431 1429 1427 1426 1426 1424 1424 1423
1517 1516 1514 1512 1511 1509 1506 1502 1498 1495 1492 1486 1483 1480 1477 1474 1474 1472 1468 1464 1460 1457 1454 1451 1447 1445 1443 1441 1440 1439 1435 1433 1431 1428 1426 1423 1421 1419 1418 1418 1417 1417 1415
1514 1512 1511 1508 1506 1503 1500 1495 1492 1488 1484 1480 1476 1473 1469 1466 1466 1464 1461 1457 1454 1451 1446 1443 1442 1438 1436 1434 1433 1431 1429 1427 1424 1422 1419 1416 1414 1411 1409 1409 1408 1407 1406
1511 1509 1506 1503 1500 1497 1493 1489 1485 1480 1476 1472 1468 1465 1462 1460 1456 1455 1452 1449 1446 1443 1439 1436 1434 1431 1428 1427 1425 1423 1421 1419 1417 1415 1413 1409 1407 1405 1402 1400 1399 1397 1397
1506 1504 1501 1498 1493 1490 1486 1482 1478 1473 1469 1464 1461 1457 1455 1453 1450 1447 1444 1441 1438 1434 1431 1429 1426 1423 1420 1418 1417 1416 1414 1411 1409 1407 1405 1403 1400 1398 1397 1395 1392 1389 1388
1502 1499 1496 1492 1488 1484 1481 1476 1471 1466 1462 1457 1453 1450 1448 1445 1441 1438 1435 1431 1428 1425 1423 1419 1417 1414 1412 1409 1409 1408 1406 1403 1401 1399 1397 1395 1394 1391 1391 1389 1387 1383 1381
1496 1493 1490 1486 1482 1478 1474 1468 1463 1458 1454 1450 1445 1442 1439 1436 1433 1429 1425 1422 1419 1416 1413 1411 1408 1406 1404 1401 1399 1398 1398 1395 1393 1391 1388 1387 1385 1384 1383 1382 1380 1378 1376
1488 1485 1481 1477 1473 1470 1465 1459 1454 1449 1445 1441 1436 1433 1430 1427 1424 1421 1417 1413 1410 1407 1404 1400 1397 1395 1393 1392 1390 1389 1389 1388 1386 1382 1379 1378 1376 1375 1374 1373 1372 1371 1369
1481 1477 1473 1469 1465 1460 1455 1449 1444 1441 1436 1432 1428 1424 1420 1417 1414 1411 1407 1404 1401 1398 1394 1391 1387 1385 1383 1382 1381 1380 1380 1379 1377 1374 1371 1369 1367 1366 1364 1363 1363 1362 1361
1473 1470 1465 1459 1453 1450 1445 1441 1435 1431 1427 1422 1417 1414 1410 1407 1404 1400 1397 1394 1391 1388 1385 1382 1380 1377 1375 1373 1372 1371 1370 1369 1368 1366 1363 1361 1359 1357 1355 1353 1352 1352 1351
1464 1461 1456 1450 1444 1440 1434 1430 1426 1421 1416 1411 1407 1404 1400 1397 1393 1390 1387 1384 1381 1380 1377 1374 1372 1369 1365 1363 1363 1362 1360 1358 1357 1356 1353 1350 1347 1344 1343 1342 1341 1342 1342
1456 1451 1446 1441 1434 1429 1424 1420 1416 1412 1407 1401 1397 1394 1391 1387 1383 1379 1375 1373 1370 1368 1366 1364 1361 1358 1354 1351 1350 1349 1348 1347 1347 1345 1342 1339 1336 1334 1333 1333 1331 1331 1332
Wind_Speed
4 3 1 1 2 3 2 3 5 6 7 6 7 6 7 8 8 10 11 10 13 12 12 10 8 9 15 15 10 12 10 10 13 15 14 14 16 18 19 22 23 21 22
6 4 2 2 3 1 2 3 5 6 7 8 8 9 9 10 10 9 9 11 12 13 14 11 11 8 12 13 11 13 13 7 8 12 12 9 7 5 9 11 11 11 15
8 5 4 1 3 3 1 2 4 5 7 8 8 8 6 5 6 9 10 10 9 10 12 14 12 11 10 10 12 12 15 14 9 7 6 5 3 14 4 5 6 7 12
4 6 5 5 2 2 2 1 3 5 7 8 8 8 8 8 8 8 9 8 8 9 10 10 11 10 10 12 10 12 14 16 15 10 11 10 14 6 9 10 12 11 11
7 7 7 4 3 3 2 2 3 5 7 8 9 8 8 7 7 8 7 8 7 8 8 10 11 11 10 10 12 13 12 13 16 15 14 14 14 14 18 19 19 9 10
10 9 7 5 3 1 1 3 5 7 8 8 9 8 8 8 8 8 10 11 12 12 12 12 12 12 12 12 12 13 14 16 16 17 18 18 19 20 15 17 19 21 23
8 5 3 3 2 2 3 5 8 9 9 7 6 6 6 7 9 11 13 14 16 17 18 19 19 17 15 15 14 14 14 15 17 19 20 20 21 20 22 24 27 27 29
6 7 6 4 4 5 7 9 11 11 9 8 7 8 8 9 10 12 14 16 18 20 21 22 21 21 20 19 17 17 17 16 17 19 21 24 25 23 23 25 26 30 31
5 4 4 5 7 9 12 12 12 11 10 10 9 9 9 11 14 16 18 19 21 21 22 23 23 23 23 23 22 21 19 18 19 20 22 23 26 28 26 26 27 28 29
2 4 9 13 13 13 15 14 14 12 11 11 10 11 12 14 17 19 21 22 24 25 26 26 25 25 25 25 25 25 23 21 20 20 22 22 23 26 28 27 28 28 30
4 10 12 14 18 17 16 16 14 14 12 13 13 15 16 20 23 24 24 25 27 28 28 28 28 27 27 26 25 25 26 25 24 22 22 24 24 25 27 29 30 30 30
7 11 16 17 15 13 14 14 12 15 16 18 18 21 23 23 25 27 28 29 31 31 31 30 28 28 28 26 26 26 23 24 25 25 24 24 23 26 26 26 30 32 33
12 12 12 10 9 10 11 10 14 17 19 22 25 26 26 27 30 32 33 33 32 32 30 30 30 29 28 27 26 25 25 24 24 24 25 27 26 27 26 28 28 31 33
10 10 11 10 11 12 14 16 19 23 24 26 27 30 30 33 34 33 35 37 33 30 29 28 29 29 28 28 26 26 25 25 26 26 26 27 27 26 27 27 28 31 30
13 11 11 15 17 20 23 24 28 32 35 35 36 34 31 29 32 34 36 36 33 30 29 29 29 29 27 28 27 25 26 27 28 26 24 25 27 26 26 28 31 31 33
15 14 15 17 23 28 29 32 36 38 36 37 30 29 28 29 33 33 33 32 30 31 32 31 29 28 28 26 26 26 27 27 27 28 27 25 25 26 24 24 25 28 30
13 18 23 30 29 29 31 32 33 35 34 33 29 30 33 34 33 33 33 33 32 32 29 28 28 28 27 27 26 25 25 25 27 28 28 27 26 26 26 25 24 24 24
22 26 28 29 30 31 31 33 35 36 36 35 34 32 30 31 27 27 30 33 33 32 31 31 30 30 31 30 30 28 26 28 28 28 26 28 26 26 26 25 26 28 29
23 25 25 26 27 28 27 30 32 33 34 36 34 33 25 29 32 34 34 35 34 34 34 33 33 33 33 31 30 29 29 28 31 31 27 26 27 28 25 23 26 28 28
22 24 24 25 26 28 29 32 35 34 33 31 29 27 29 33 34 34 35 36 35 35 35 34 33 33 34 35 34 32 30 31 32 30 29 27 26 25 26 24 25 27 28
24 26 27 29 30 33 34 35 37 37 38 35 34 32 33 34 35 37 38 37 35 35 36 36 36 34 35 36 34 31 30 31 30 30 30 30 29 27 24 25 26 28 29
29 30 31 33 36 36 37 40 40 40 39 39 39 37 38 38 37 36 38 39 38 38 39 40 40 38 37 34 31 30 29 30 30 30 30 30 30 27 25 26 30 30 28
34 33 34 35 37 41 41 41 41 39 40 39 38 35 37 39 39 39 39 38 38 38 39 40 39 40 38 34 31 31 32 30 28 30 28 29 30 31 32 33 32 30 29
33 33 37 41 42 41 42 41 43 43 42 39 36 38 38 40 41 39 38 38 38 37 36 35 35 36 36 35 33 33 32 32 28 28 31 31 35 38 39 38 35 31 26
38 40 40 41 44 43 42 41 41 42 42 40 38 37 37 38 38 37 37 37 37 36 36 37 37 37 38 41 40 36 34 34 36 34 33 34 37 39 39 37 35 29 25
42 43 44 44 44 44 43 44 43 42 41 40 38 37 36 37 37 37 38 38 38 38 38 37 38 40 41 42 41 38 37 35 30 31 34 36 36 37 36 34 30 28 25
Wind_Direction
175 149 165 199 50 347 342 328 346 354 354 347 338 329 308 320 306 305 315 328 323 320 319 316 300 293 305 316 308 303 304 301 305 303 314 295 273 257 258 264 284 279 282
134 115 74 77 112 335 358 351 356 357 352 350 344 340 343 352 2 358 318 318 317 325 329 326 320 313 302 312 315 306 306 273 275 281 294 315 342 290 272 280 282 284 266
158 153 142 232 215 238 337 3 4 2 356 350 340 335 329 315 307 310 324 332 339 327 320 325 329 323 311 302 303 308 307 311 299 320 312 314 331 324 263 252 296 270 258
160 143 164 210 210 160 137 52 20 6 355 351 347 345 345 338 338 337 340 345 342 332 329 328 329 326 320 315 305 308 306 308 307 296 290 279 271 295 297 251 230 235 258
165 170 186 172 140 122 96 42 6 355 349 343 339 338 335 335 337 345 351 0 3 1 350 344 341 337 325 318 313 305 292 285 283 285 282 277 271 271 262 275 289 261 242
176 182 175 178 168 135 357 338 339 338 335 333 334 337 341 341 344 349 349 350 349 347 341 342 338 336 329 321 313 306 299 294 287 286 286 285 284 285 280 277 271 269 278
178 169 165 218 293 314 313 311 310 308 306 310 313 315 322 329 335 337 339 339 337 334 330 327 325 323 318 314 312 308 302 298 292 286 283 279 275 276 281 286 287 287 286
175 193 222 252 272 287 295 294 296 293 287 286 289 298 310 319 325 325 326 325 322 320 319 318 318 317 317 314 309 305 303 299 289 283 282 282 278 276 267 265 275 285 286
182 237 271 280 283 284 286 284 283 279 280 284 292 298 306 314 320 321 321 319 317 315 315 314 314 313 313 313 312 310 307 300 293 285 278 275 278 277 276 270 268 272 283
94 335 323 311 298 284 281 280 277 276 281 287 291 298 308 314 317 316 315 314 313 312 312 311 311 311 312 312 311 311 311 307 301 289 280 273 272 276 276 272 270 271 269
321 321 319 307 300 286 283 284 284 286 285 285 293 304 311 316 318 317 315 314 312 311 309 309 307 308 310 311 311 311 310 307 302 297 290 280 272 265 265 269 268 269 267
333 325 320 312 291 283 291 289 288 292 289 290 294 302 310 316 317 316 316 313 310 310 309 306 305 305 305 305 305 307 306 303 301 299 295 291 288 273 263 265 268 266 265
345 341 335 323 319 298 296 285 292 292 297 299 298 300 301 305 311 314 314 313 306 303 301 301 301 302 303 303 303 304 303 299 294 295 294 292 286 284 282 265 263 270 271
343 341 340 331 324 322 312 306 305 298 293 292 292 296 297 299 301 304 309 311 305 299 297 295 295 297 298 298 300 300 299 299 298 298 295 290 288 286 280 279 273 267 273
328 317 324 326 320 318 316 311 305 298 295 286 283 283 287 286 295 298 300 301 299 298 295 294 294 295 295 296 297 296 294 297 300 301 302 294 283 281 278 272 270 271 268
316 316 317 318 319 306 297 295 292 294 303 290 280 287 289 290 293 293 288 291 291 292 293 293 294 294 294 295 297 295 295 297 299 302 304 304 295 281 284 284 274 272 272
320 320 312 308 312 307 310 307 302 302 304 300 297 294 294 295 290 288 287 289 290 292 292 294 294 293 295 296 296 296 295 296 301 304 305 307 307 300 282 280 276 275 274
317 309 307 310 311 310 308 306 306 304 305 303 297 292 296 293 290 290 287 290 292 292 293 294 294 294 294 296 297 296 294 293 294 300 301 303 307 309 307 294 291 283 278
315 310 308 308 312 314 315 313 313 313 306 298 298 297 296 287 290 293 294 296 293 291 290 291 292 293 294 296 295 295 293 290 293 298 300 300 300 305 306 297 294 294 292
308 307 309 309 309 310 308 306 307 307 308 304 302 293 287 290 293 298 294 294 290 289 291 292 293 295 295 297 295 290 284 284 288 295 299 300 295 295 295 287 289 291 290
296 298 298 298 301 305 304 300 300 297 298 294 291 289 284 288 293 298 298 296 292 289 288 289 291 292 292 292 290 287 282 279 282 290 297 299 297 294 286 282 283 285 292
295 297 295 294 300 303 302 299 296 295 294 292 290 286 288 292 290 291 291 290 288 286 286 290 292 293 291 291 288 283 278 273 278 285 294 297 296 295 288 280 280 286 287
293 293 294 295 298 300 301 300 298 297 297 293 290 289 293 292 291 290 289 288 286 283 280 279 279 286 291 288 283 278 275 273 275 281 288 291 291 290 287 286 288 289 283
294 296 296 297 298 300 302 300 298 298 299 295 288 288 287 288 289 287 285 282 281 279 278 278 278 281 283 282 281 280 276 277 279 274 277 274 275 276 278 281 285 287 281
294 297 296 296 297 298 298 299 299 297 295 293 291 290 289 288 288 286 283 283 282 280 280 280 280 281 278 276 277 276 275 273 276 287 286 285 284 281 281 283 287 284 281
295 296 295 297 297 298 298 300 299 297 294 292 289 289 289 290 289 286 285 284 282 281 281 281 279 280 278 278 278 280 279 278 278 278 278 281 281 279 279 282 280 278 279